RH
20 23 24 25 29 43 49 62 71 87 85 77 73 71 76 69 68 69 65 66 62 58 65 70 71 69 65 70 88 92 99 100 98 97 100 99 95 98 98 89 100 98 98
21 22 23 27 28 29 30 34 42 45 57 66 81 72 66 63 64 63 58 54 58 59 63 72 78 74 68 82 100 98 96 97 90 88 92 96 96 89 93 99 99 98 88
23 23 23 24 26 28 30 32 35 41 52 62 74 70 63 61 62 61 61 59 60 63 61 60 60 80 97 100 100 93 95 97 98 92 99 99 94 97 100 100 98 98 99
40 40 35 31 27 27 28 30 30 31 30 33 35 42 60 62 57 55 60 58 55 48 45 55 70 94 97 95 91 86 98 98 99 95 98 100 97 94 100 100 97 100 99
50 48 50 51 50 42 31 32 31 32 39 52 60 40 33 44 42 41 47 54 56 61 72 84 88 96 87 88 92 99 98 99 97 100 98 92 98 99 98 96 88 99 100
49 53 55 58 58 55 51 46 52 56 61 66 71 75 76 70 77 86 91 95 90 90 92 93 89 88 91 95 100 99 100 100 100 96 100 100 100 100 100 100 100 98 99
48 51 46 35 36 51 53 49 51 50 66 71 73 68 67 71 75 80 86 90 86 78 73 72 80 95 94 98 96 100 100 100 100 100 100 99 100 99 98 100 98 96 97
31 30 27 26 25 29 33 35 35 36 39 48 69 79 82 80 78 78 80 81 78 75 70 74 92 99 98 98 100 99 100 100 100 99 99 99 98 99 98 97 96 96 96
25 27 29 30 31 34 36 36 40 36 32 52 54 58 67 68 69 72 74 76 70 69 83 71 83 98 99 98 100 100 99 98 98 100 99 100 97 98 97 96 97 94 92
27 30 31 32 34 38 39 35 41 40 42 50 57 57 62 69 71 72 69 68 77 90 80 99 99 100 100 100 99 99 99 100 100 100 100 99 99 96 96 95 95 94 94
48 44 35 35 38 40 41 45 45 44 38 41 57 62 66 72 74 73 81 89 74 95 99 100 100 100 99 100 100 100 100 99 95 97 96 96 95 92 92 92 95 96 96
44 45 42 39 40 47 51 52 52 49 40 39 53 62 67 66 72 82 75 88 100 100 100 100 100 100 100 100 100 99 96 95 96 96 95 95 91 91 94 94 93 90 88
51 50 57 48 46 45 54 60 61 56 36 42 44 42 48 59 64 89 100 100 100 100 100 86 94 100 98 96 95 95 95 92 92 91 88 85 84 82 82 82 84 86 86
46 49 44 48 55 57 68 71 68 63 55 47 60 60 67 70 99 100 100 100 100 94 98 98 97 97 96 94 93 86 85 82 80 79 78 78 79 80 79 80 75 73 74
48 51 48 70 78 74 82 73 70 74 81 87 93 73 96 100 100 100 99 99 100 99 97 95 95 93 86 82 77 73 72 71 71 66 53 34 18 11 10 15 19 25 38
93 92 96 98 100 100 97 82 96 89 82 90 99 99 98 98 97 97 96 96 96 96 95 91 86 85 77 74 73 70 53 26 8 4 4 5 5 5 5 6 7 9 13
100 100 100 100 100 98 95 91 98 98 98 98 97 96 96 96 96 96 96 96 94 93 94 89 76 73 66 40 10 4 4 4 4 5 5 6 6 6 7 8 11 16 24
99 98 99 98 98 98 98 98 97 96 97 96 97 97 96 96 96 96 96 95 95 90 80 63 31 6 4 4 4 4 5 5 6 6 7 7 9 11 15 19 27 43 59
98 98 98 98 97 96 97 98 97 97 96 97 98 96 96 95 96 95 95 92 73 32 6 3 3 4 4 4 5 6 6 7 8 8 11 15 20 25 31 38 51 66 72
100 98 97 97 97 98 97 96 96 96 96 95 95 95 95 95 92 72 26 5 4 3 4 4 4 5 5 6 7 8 9 10 13 18 23 26 28 31 35 42 52 58 64
96 96 96 95 95 96 98 100 97 96 95 95 94 89 60 21 4 3 3 4 4 4 4 5 6 6 7 8 10 13 15 18 20 22 24 26 28 32 38 46 54 63 71
98 98 98 97 97 97 96 96 95 94 91 74 28 6 4 4 4 4 4 4 5 5 6 7 7 8 11 13 15 17 18 18 19 20 23 29 37 45 52 60 65 73 77
96 96 96 96 97 96 94 92 72 30 8 4 4 4 4 4 4 5 5 6 6 7 8 8 10 13 15 17 18 17 17 18 22 28 39 51 57 61 64 66 72 74 77
95 95 95 94 90 61 25 8 4 4 4 4 4 4 5 5 6 6 7 7 8 8 9 11 15 18 19 19 19 19 22 29 39 48 54 60 66 72 77 82 84 85 86
95 89 66 37 17 8 5 4 4 4 4 5 5 5 6 6 7 8 8 9 10 11 14 17 20 22 23 23 24 27 35 45 51 54 63 75 81 84 86 86 89 90 92
57 38 22 8 5 4 4 4 5 5 5 6 6 7 8 8 9 9 10 11 14 17 20 22 25 27 29 31 34 39 48 51 54 66 73 79 87 94 94 94 97 97 96
Wind_Speed
14 13 13 13 13 15 17 21 24 25 25 26 29 35 38 40 41 41 38 37 36 35 37 39 40 39 42 44 48 53 48 41 44 45 52 44 36 34 33 40 41 37 37
16 15 14 14 15 16 16 17 20 22 25 26 29 33 39 41 43 41 38 36 37 38 39 41 42 43 43 44 40 32 37 34 34 38 33 33 37 36 43 43 42 40 42
20 19 19 18 17 16 16 16 18 20 22 24 26 28 32 36 37 36 37 37 38 41 43 45 46 45 48 44 44 40 39 36 41 40 37 44 43 35 41 41 46 44 42
19 20 20 20 20 20 22 23 25 26 28 28 27 29 32 34 34 36 38 40 42 44 46 46 48 46 44 42 40 39 42 41 39 39 37 42 40 37 41 46 44 42 44
24 23 22 22 23 24 27 27 29 29 28 27 27 34 34 33 35 37 38 41 44 45 46 46 47 49 43 44 45 41 43 43 41 34 40 43 38 42 45 48 48 49 51
29 26 25 26 27 27 30 31 31 31 31 31 28 34 39 36 35 33 35 38 40 41 42 43 44 45 47 47 43 45 42 36 40 45 39 42 40 49 46 48 51 47 52
33 31 28 27 27 29 30 31 31 32 36 36 34 30 32 36 40 37 38 39 41 41 42 43 44 46 47 42 46 42 41 39 40 44 41 37 42 45 45 50 49 55 57
30 29 28 25 24 24 25 26 27 26 27 30 37 41 39 41 43 41 39 41 42 44 45 46 45 44 45 45 42 47 47 44 41 37 38 46 52 48 45 51 58 62 61
29 30 29 26 24 23 23 25 28 28 26 27 31 36 41 43 43 43 42 43 45 46 47 46 39 39 43 47 42 39 36 39 39 42 45 44 49 56 60 58 55 57 57
35 35 34 33 32 30 30 30 29 28 30 34 34 36 37 39 41 41 42 43 45 45 42 37 36 37 38 38 41 44 44 41 43 47 50 52 53 54 54 55 55 56 56
33 40 41 40 40 39 33 34 34 33 32 35 37 37 39 41 42 42 42 42 40 34 34 33 35 36 38 39 40 44 46 49 49 50 51 53 55 57 57 57 55 54 54
42 42 43 45 44 42 41 41 39 36 35 37 39 40 41 42 42 42 40 33 32 37 34 34 37 42 43 44 44 45 46 48 51 53 55 55 56 57 56 56 54 53 54
52 44 44 46 47 48 47 42 41 39 39 39 38 40 41 41 39 33 32 35 35 33 39 41 38 40 43 43 44 46 49 52 53 54 55 54 54 54 54 54 55 55 56
52 45 45 44 45 46 37 39 46 40 38 38 38 38 35 36 35 36 36 37 39 40 37 37 37 39 41 44 47 50 51 52 51 50 51 52 53 55 57 59 61 61 61
34 37 45 40 41 41 41 42 38 42 37 31 32 34 35 36 33 31 31 34 32 32 35 37 38 41 45 48 49 48 47 48 51 53 55 57 58 60 60 60 61 60 60
20 26 29 33 34 34 34 35 35 34 34 33 33 36 28 25 24 26 28 30 31 33 35 39 43 44 43 43 45 47 50 53 55 56 57 58 59 59 59 58 57 55 54
25 26 25 25 29 31 29 29 28 25 24 23 23 22 23 25 26 27 28 30 33 36 39 40 39 40 43 45 48 50 51 52 54 54 55 55 55 55 54 52 50 47 45
14 17 20 19 17 15 16 14 15 16 19 20 22 24 25 26 28 29 32 35 35 33 35 38 41 43 44 46 47 48 48 49 49 50 49 49 47 46 44 43 40 38 37
12 14 16 16 14 17 19 21 20 17 19 22 24 23 24 27 30 31 30 31 34 37 38 39 41 41 43 44 44 44 44 44 44 43 42 40 38 37 35 34 33 32 32
19 18 17 17 19 18 18 15 16 16 17 19 23 26 27 26 26 28 30 32 34 36 36 38 39 40 40 40 40 40 39 39 38 37 35 33 33 32 32 31 30 30 29
16 14 15 15 17 17 19 19 19 19 20 20 20 22 24 26 28 29 31 31 32 34 35 36 37 37 36 36 36 35 35 34 33 32 31 31 31 30 30 29 28 28 27
16 15 15 15 16 16 16 16 17 17 18 19 21 23 25 26 28 29 30 31 32 33 33 33 33 33 32 32 32 31 30 30 30 29 29 28 27 27 27 27 27 26 26
14 13 13 13 13 14 14 15 16 18 19 21 22 23 25 26 27 28 29 30 31 31 31 31 31 30 30 29 28 28 28 27 26 26 25 24 25 26 26 27 26 26 25
11 11 11 11 11 12 14 16 18 19 20 21 22 23 24 25 26 27 29 29 30 30 30 29 29 28 27 26 26 25 25 24 23 23 23 24 25 25 26 25 25 25 24
9 9 9 11 13 15 16 17 18 19 20 21 22 23 25 26 27 27 28 28 28 28 28 27 26 25 24 24 24 23 22 21 22 24 23 21 20 20 22 23 23 23 22
8 10 12 14 16 17 17 18 19 19 20 21 22 23 24 25 26 26 27 27 26 25 24 24 24 24 23 22 21 20 20 21 23 21 17 17 19 20 21 22 22 23 22
Wind_Direction
212 199 191 192 195 198 202 207 208 210 210 216 216 217 222 226 232 238 243 249 255 261 267 272 277 282 283 289 284 286 295 286 293 294 289 271 288 285 272 281 269 272 285
222 223 215 204 201 201 200 203 209 212 213 216 216 220 225 230 235 241 249 256 261 266 270 273 277 278 286 287 302 285 291 286 284 296 280 290 289 281 283 275 268 277 289
228 227 227 226 222 219 214 214 217 222 225 229 230 232 234 237 244 253 257 260 263 267 270 272 277 283 286 285 286 288 286 287 286 291 288 283 298 286 279 267 286 275 274
226 229 232 232 232 227 221 224 227 229 228 227 236 239 238 241 246 251 256 261 264 266 271 274 279 286 286 282 281 283 286 288 285 282 284 281 285 282 274 273 289 284 275
223 229 236 235 232 231 232 234 236 237 237 237 248 243 239 247 250 253 258 263 267 271 274 277 278 281 278 277 278 283 284 281 289 272 284 284 280 271 282 293 291 279 274
235 238 240 235 234 234 236 236 241 243 243 246 252 247 246 252 254 255 261 265 269 273 279 280 279 280 276 277 282 282 286 277 278 284 274 281 284 283 284 287 282 273 274
235 236 236 234 233 232 234 238 243 248 250 253 252 252 248 250 257 260 263 266 272 274 275 278 278 277 278 275 281 281 280 273 274 279 278 271 279 284 278 277 273 283 283
233 230 224 225 229 232 234 240 245 249 251 252 251 250 253 255 260 265 267 268 270 272 274 277 277 275 277 273 270 280 280 273 276 275 273 278 286 278 274 278 284 285 284
225 222 224 228 231 236 242 244 244 255 261 256 250 251 254 258 262 263 264 266 268 273 277 281 279 276 274 273 268 272 273 286 279 281 285 279 283 285 285 287 288 290 293
225 226 227 230 232 234 241 257 261 261 256 253 254 256 257 257 259 260 263 267 272 275 279 274 272 267 269 274 281 288 288 284 283 286 285 286 286 285 288 293 296 296 296
236 237 236 236 235 240 244 245 250 256 259 258 255 256 257 258 262 264 266 269 275 272 269 267 266 276 281 281 281 283 283 284 286 288 289 289 291 294 296 296 295 294 293
241 235 247 247 243 239 240 244 246 252 254 253 254 257 259 261 263 265 268 266 257 263 266 272 277 280 282 284 286 288 290 291 291 291 293 294 295 296 296 296 295 294 293
238 247 256 251 242 239 236 238 243 248 251 248 251 256 258 261 264 263 251 253 263 266 273 278 278 279 282 285 288 290 291 292 294 295 296 297 297 298 297 297 296 295 294
239 235 244 246 239 237 234 250 247 243 245 249 252 254 258 260 256 255 258 266 270 274 275 277 279 284 286 287 289 290 292 294 296 296 298 298 298 297 297 297 296 295 294
235 236 242 241 235 233 236 235 239 252 253 250 251 259 256 254 252 254 263 267 268 271 276 281 284 288 291 293 295 297 298 299 299 300 299 299 299 298 297 296 295 295 294
246 240 240 236 233 232 237 243 250 244 245 249 245 248 244 250 260 265 267 271 276 280 286 289 291 295 297 298 299 300 300 300 301 301 300 300 299 299 298 298 297 296 295
209 212 221 232 235 240 241 242 242 249 251 252 256 258 257 259 263 272 276 281 285 288 291 294 296 296 297 299 299 299 300 300 301 301 302 302 302 302 302 302 302 301 299
291 278 266 251 244 240 239 249 248 256 255 260 267 264 266 268 273 279 284 287 289 292 293 295 296 298 299 300 300 301 302 303 304 305 305 306 307 309 310 311 310 309 306
293 262 254 255 232 294 271 254 236 237 255 254 252 255 267 276 280 284 289 293 295 295 296 298 299 301 301 302 302 304 306 307 308 310 312 314 317 319 320 319 318 315 313
262 257 239 236 234 237 237 238 246 252 260 271 276 279 281 284 289 291 292 294 295 297 299 301 303 303 304 305 307 309 311 314 317 319 321 321 321 321 321 321 320 318 316
271 254 249 248 252 246 252 257 263 271 275 278 283 288 291 293 294 294 295 297 300 302 303 304 305 306 308 310 313 317 320 322 322 322 321 321 321 321 321 322 322 321 320
252 245 245 249 255 263 270 275 279 283 287 290 289 290 293 296 298 300 302 304 304 305 306 308 310 311 314 317 319 320 321 321 321 322 323 323 322 322 322 323 323 322 321
249 251 255 259 265 272 279 285 289 290 291 293 296 298 300 301 303 304 304 306 308 311 313 314 315 316 317 317 317 318 319 321 322 322 323 323 321 320 321 322 322 322 322
250 254 260 271 280 285 287 289 292 294 297 298 299 301 303 303 305 307 310 312 313 315 317 317 317 316 316 315 316 317 318 320 320 321 322 321 319 320 321 324 324 324 323
260 271 284 289 290 291 292 294 296 299 301 302 303 304 307 309 311 312 314 316 317 318 318 317 316 316 316 316 316 316 317 317 319 321 323 323 327 329 330 332 333 333 330
296 298 296 294 295 297 299 299 300 301 302 304 306 308 310 312 314 315 316 316 317 317 317 318 319 319 318 315 314 313 315 319 321 323 326 327 326 327 328 332 333 331 329